User: anonymous   Login
Location: Montr�al
(45.5000°N, 73.5830°W)
Time: 15:48:24
(UTC-04:00)
Language:

Cosmos 1151 Rocket - Orbit

View from above orbital plane
View from above orbital plane
View from above satellite
View from above satellite

Ground track
Ground track

The orbit data is extracted from the following two-line orbital elements,

1 11672U 80005B   18145.95665339 +.00000078 +00000-0 +58647-5 0  9995
2 11672 082.5141 115.8412 0015174 258.2808 101.6707 14.87921032053257
Epoch (UTC): 25 May 2018 22:57:34
Eccentricity: 0.0015174
inclination: 82.5141°
perigee height: 594 km
apogee height: 615 km
right ascension of ascending node: 115.8412°
argument of perigee: 258.2808°
revolutions per day: 14.87921032
mean anomaly at epoch: 101.6707°
orbit number at epoch: 5325

The dashed part of the orbit path shows where the satellite is in the earth's shadow,  

DLR